Regional Weather Roundup
Issued by NWS

Home | Current Version | Previous Version | Graphics & Text | Print | Product List | Glossary On
Versions: 1 2 3 4 5 6 7 8 9 10 11 12 13 14 15 16 17 18 19 20 21 22 23 24 25 26 27 28 29 30 31 32 33 34 35 36 37 38 39 40 41 42 43 44 45 46 47 48 49 50
000
ASUS43 KLSX 270507
RWRMO

WEATHER SUMMARY FOR MISSOURI
NATIONAL WEATHER SERVICE SPRINGFIELD MO
1200 AM CDT FRI MAR 27 2015

NOTE: "FAIR" INDICATES FEW OR NO CLOUDS BELOW 12,000 FEET WITH NO
       SIGNIFICANT WEATHER AND/OR OBSTRUCTIONS TO VISIBILITY.
       CURRENT SKY AND/OR WEATHER CONDITIONS ARE NOT AVAILABLE FOR
       CHILLICOTHE AND FARMINGTON.

MOZ001>031-035>038-043-044-053-054-270600-
...NORTHERN AND WESTERN MISSOURI...

CITY           SKY/WX    TMP DP  RH WIND       PRES   REMARKS
KANSAS CTY INT LGT RAIN  38  35  89 N13       30.15R WCI  30
KANSAS C DTWN  LGT RAIN  41  35  79 N14       30.15R
LEE`S SUMMIT   LGT RAIN  39  34  82 N17G25    30.15R WCI  30
ST JOSEPH      MOCLDY    36  33  89 N8        30.18S WCI  30
CHILLICOTHE      N/A     38  32  79 N6        30.16S
KIRKSVILLE     CLOUDY    37  29  72 N12       30.13R WCI  29

$$
MOZ066>068-077>081-088>096-101>105-270600-
...SOUTHWEST MISSOURI...

CITY           SKY/WX    TMP DP  RH WIND       PRES   REMARKS
SPRINGFIELD    CLOUDY    42  29  59 CALM      30.06S
JOPLIN         LGT RAIN  46  33  60 W13       30.11R

$$
MOZ032>034-039>042-045>050-055>058-069>072-270600-
...CENTRAL MISSOURI...

CITY           SKY/WX    TMP DP  RH WIND       PRES   REMARKS
COLUMBIA       CLOUDY    41  31  67 NW7       30.07F
JEFFERSON CITY CLOUDY    41  32  70 NW5       30.08F
ROLLA          CLOUDY    41  29  62 MISG      30.04F
SEDALIA        CLOUDY    44  31  60 NW3       30.10R
WHITEMAN AFB   LGT RAIN  43  31  63 N20G26    30.10R
WARRENSBURG    CLOUDY    43  32  65 N17G23    30.12R
OSAGE BEACH    CLOUDY    39  30  70 CALM      30.08R

$$
MOZ051-052-059>065-270600-
...EAST CENTRAL MISSOURI...

CITY           SKY/WX    TMP DP  RH WIND       PRES   REMARKS
ST LOUIS INTL  MOCLDY    40  28  62 NW3       30.06F
SPIRIT OF STL  FAIR      34  31  88 CALM      30.06F
ST CHARLES     PTCLDY    38  29  70 N6        30.06S

$$
MOZ072>076-082>087-097>100-106>115-270600-
...SOUTH CENTRAL AND SOUTHEAST MISSOURI...

CITY           SKY/WX    TMP DP  RH WIND       PRES   REMARKS
CAPE GIRARDEAU CLEAR     35  33  92 SW3       30.06S
FARMINGTON     CLEAR     34  28  80 N3        30.07S
POPLAR BLUFF   CLEAR     39  34  82 CALM      30.06S
WEST PLAINS    CLEAR     34  27  75 MISG      30.05F

$$


USA.gov is the U.S. government's official web portal to all federal, state and local government web resources and services.